Location: Beaurecueil
(43.5122°N, 5.5450°E)
Time: 07:06:43
(UTC+00:00)

Cosmos 1939 Rocket - Pass Details

Date: 21 January 2021
Orbit: 531 x 585 km, 97.4° (Epoch: 04 March)

Event Time Altitude Azimuth Distance (km) Brightness Sun altitude
Rises 05:15:40 0° 34° (NE) 2,726 6.7 -19.5°
Reaches altitude 10° 05:19:07 10° 67° (ENE) 1,812 6.3 -18.8°
Maximum altitude 05:20:37 12° 89° (E) 1,685 6.4 -18.6°
Drops below altitude 10° 05:22:07 10° 112° (ESE) 1,797 6.6 -18.3°
Sets 05:25:29 0° 145° (SE) 2,672 7.0 -17.7°
